CW7945 Weather Reports


time (UTC)temp
C
wind
direction
speed
KPH
gust
KPH
rain 1hr
cm
rain 24hr
cm
rain mn
cm
humidity
%
barometer
mb
20260504190016 21 225 6.4 22.5 0.00 0.00 0.00 39 1010.4
20260504185016 21 248 1.6 14.5 0.00 0.00 0.00 41 1010.6
20260504184016 21 248 1.6 11.3 0.00 0.00 0.00 39 1010.7
20260504183036 22 248 6.4 32.2 0.00 0.00 0.00 39 1010.9
20260504182016 22 248 1.6 16.1 0.00 0.00 0.00 41 1011.0
20260504181036 21 248 1.6 12.9 0.00 0.00 0.00 39 1011.0
20260504180016 21 293 1.6 16.1 0.00 0.00 0.00 41 1011.3
20260504175016 21 225 4.8 14.5 0.00 0.00 0.00 41 1011.5
20260504174016 21 248 3.2 19.3 0.00 0.00 0.00 40 1011.5
20260504173016 20 225 8.0 20.9 0.00 0.00 0.00 38 1011.7
20260504172016 20 225 4.8 20.9 0.00 0.00 0.00 39 1011.7
20260504171016 20 248 6.4 24.1 0.00 0.00 0.00 39 1012.0
20260504151037 18 270 1.6 12.9 0.00 0.00 0.00 48 1013.3
20260504141016 16 225 1.6 8.0 0.00 0.00 0.00 59 1013.7
20260504081016 5 0.0 0.0 0.00 0.00 0.00 72 1014.4
20260504050016 7 0.0 0.0 0.00 0.00 0.00 64 1014.1
20260504045016 7 0.0 0.0 0.00 0.00 0.00 64 1014.1
20260504044016 7 0.0 0.0 0.00 0.00 0.00 63 1014.1
20260504043016 8 0.0 0.0 0.00 0.00 0.00 63 1014.0
20260504042016 7 0.0 0.0 0.00 0.00 0.00 63 1013.8
20260504041016 8 0.0 0.0 0.00 0.00 0.00 62 1013.8
20260504040016 8 0.0 0.0 0.00 0.00 0.00 60 1013.7
20260504035510 8 0.0 0.0 0.00 0.00 0.00 60 1013.6
20260504035011 8 0.0 0.0 0.00 0.00 0.00 59 1013.6
20260504034530 8 0.0 0.0 0.00 0.00 0.00 62 1013.6
20260504034010 8 0.0 0.0 0.00 0.00 0.00 59 1013.6
20260504033510 8 0.0 0.0 0.00 0.00 0.00 59 1013.6
20260504033010 8 0.0 0.0 0.00 0.00 0.00 60 1013.5
20260504032511 8 0.0 0.0 0.00 0.00 0.00 59 1013.5
20260504032030 8 0.0 0.0 0.00 0.00 0.00 60 1013.5
20260504031551 8 0.0 0.0 0.00 0.00 0.00 60 1013.5
20260504031010 8 0.0 0.0 0.00 0.00 0.00 59 1013.5
20260504030511 8 0.0 0.0 0.00 0.00 0.00 58 1013.4
20260504030010 8 0.0 0.0 0.00 0.00 0.00 58 1013.4
20260504025510 8 0.0 0.0 0.00 0.00 0.00 58 1013.4
20260504025010 9 0.0 0.0 0.00 0.00 0.00 57 1013.4
20260504024511 9 0.0 0.0 0.00 0.00 0.00 57 1013.4
20260504024010 9 0.0 0.0 0.00 0.00 0.00 56 1013.4
20260504023531 10 0.0 0.0 0.00 0.00 0.00 55 1013.4
20260504023010 10 0.0 0.0 0.00 0.00 0.00 55 1013.4
20260504022511 10 0.0 0.0 0.00 0.00 0.00 53 1013.4
20260504022030 10 0.0 0.0 0.00 0.00 0.00 52 1013.4
20260504021611 10 0.0 0.0 0.00 0.00 0.00 52 1013.4
20260504021010 10 0.0 0.0 0.00 0.00 0.00 52 1013.5
20260504020511 10 0.0 0.0 0.00 0.00 0.00 53 1013.3
20260504020010 10 0.0 0.0 0.00 0.00 0.00 53 1013.3
20260504015511 10 0.0 0.0 0.00 0.00 0.00 53 1013.3
20260504015010 10 0.0 0.0 0.00 0.00 0.00 53 1013.3
20260504014511 10 0.0 0.0 0.00 0.00 0.00 53 1013.2
20260504014010 10 0.0 0.0 0.00 0.00 0.00 52 1013.2
20260504013511 10 0.0 0.0 0.00 0.00 0.00 52 1013.2
20260504013010 11 0.0 0.0 0.00 0.00 0.00 51 1013.2
20260504012510 11 0.0 0.0 0.00 0.00 0.00 50 1013.2
20260504012010 11 0.0 0.0 0.00 0.00 0.00 49 1013.1
20260504011511 11 0.0 0.0 0.00 0.00 0.00 48 1013.0
20260504011010 11 0.0 0.0 0.00 0.00 0.00 48 1012.9
20260504010511 11 0.0 0.0 0.00 0.00 0.00 48 1012.9
20260504010010 11 0.0 0.0 0.00 0.00 0.00 48 1012.8
20260504005511 11 0.0 0.0 0.00 0.00 0.00 48 1012.7
20260504005010 12 0.0 0.0 0.00 0.00 0.00 47 1012.6
20260504004510 12 0.0 0.0 0.00 0.00 0.00 46 1012.6
20260504004010 12 0.0 0.0 0.00 0.00 0.00 45 1012.6
20260504003510 12 0.0 0.0 0.00 0.00 0.00 45 1012.6
20260504003010 12 0.0 0.0 0.00 0.00 0.00 44 1012.5
20260504002510 13 0.0 0.0 0.00 0.00 0.00 44 1012.4
20260504002050 13 0.0 0.0 0.00 0.00 0.00 43 1012.4
20260504001510 13 0.0 0.0 0.00 0.00 0.00 43 1012.3
20260504001031 13 0.0 0.0 0.00 0.00 0.00 42 1012.3
20260504000510 13 0.0 0.0 0.00 0.00 0.00 42 1012.2
20260504000031 13 0.0 0.0 0.00 0.00 0.00 41 1012.1
20260503235510 13 0.0 0.0 0.00 0.00 0.00 41 1012.0
20260503235010 14 0.0 8.0 0.00 0.00 0.00 40 1012.0
20260503234510 14 293 1.6 8.0 0.00 0.00 0.00 39 1012.0
20260503234010 14 0.0 0.0 0.00 0.00 0.00 39 1012.0
20260503233510 14 0.0 1.6 0.00 0.00 0.00 39 1011.9
20260503233010 15 0.0 9.7 0.00 0.00 0.00 39 1011.9
20260503232510 15 0.0 3.2 0.00 0.00 0.00 39 1011.9
20260503232010 15 0.0 4.8 0.00 0.00 0.00 39 1012.0
20260503231511 15 0.0 8.0 0.00 0.00 0.00 38 1012.0
20260503231011 15 293 3.2 16.1 0.00 0.00 0.00 37 1011.9
20260503230511 15 293 1.6 17.7 0.00 0.00 0.00 37 1011.8
20260503230010 15 293 3.2 16.1 0.00 0.00 0.00 36 1011.7
20260503225531 16 338 3.2 19.3 0.00 0.00 0.00 36 1011.7
20260503225010 16 338 1.6 17.7 0.00 0.00 0.00 36 1011.7
20260503224511 16 0 3.2 17.7 0.00 0.00 0.00 36 1011.8
20260503224010 16 293 3.2 16.1 0.00 0.00 0.00 36 1011.7
20260503223511 16 293 3.2 12.9 0.00 0.00 0.00 36 1011.7
20260503223030 16 293 3.2 14.5 0.00 0.00 0.00 35 1011.7
20260503222511 16 0.0 14.5 0.00 0.00 0.00 35 1011.8
20260503222010 16 315 1.6 14.5 0.00 0.00 0.00 35 1011.7
20260503221511 16 293 4.8 14.5 0.00 0.00 0.00 34 1011.7
20260503221010 16 248 1.6 11.3 0.00 0.00 0.00 35 1011.6
20260503220530 16 338 4.8 17.7 0.00 0.00 0.00 34 1011.6
20260503220010 16 293 3.2 17.7 0.00 0.00 0.00 34 1011.6
20260503215510 16 293 4.8 17.7 0.00 0.00 0.00 34 1011.7
20260503215010 16 338 8.0 19.3 0.00 0.00 0.00 33 1011.6
20260503214510 16 293 3.2 17.7 0.00 0.00 0.00 33 1011.6
20260503214010 16 315 3.2 19.3 0.00 0.00 0.00 35 1011.6
20260503213550 16 0 6.4 24.1 0.00 0.00 0.00 34 1011.5
20260503213011 16 23 1.6 12.9 0.00 0.00 0.00 33 1011.5
20260503212510 16 338 3.2 19.3 0.00 0.00 0.00 34 1011.5
20260503212010 16 338 8.0 20.9 0.00 0.00 0.00 33 1011.5
20260503211511 16 338 4.8 27.4 0.00 0.00 0.00 35 1011.6
20260503211010 16 338 8.0 20.9 0.00 0.00 0.00 34 1011.6
20260503210511 16 0 8.0 25.7 0.00 0.00 0.00 34 1011.5
20260503210010 16 270 8.0 22.5 0.00 0.00 0.00 35 1011.5
20260503205511 16 293 4.8 17.7 0.00 0.00 0.00 35 1011.6
20260503205010 16 293 3.2 19.3 0.00 0.00 0.00 35 1011.7
20260503204531 16 293 8.0 27.4 0.00 0.00 0.00 37 1011.8
20260503204030 16 315 6.4 17.7 0.00 0.00 0.00 35 1011.7
20260503203511 15 315 1.6 19.3 0.00 0.00 0.00 38 1011.8
20260503203010 15 293 4.8 19.3 0.00 0.00 0.00 35 1011.9
20260503202510 16 293 6.4 22.5 0.00 0.00 0.00 36 1011.9
20260503202030 15 338 6.4 19.3 0.00 0.00 0.00 37 1011.8
20260503201510 15 315 8.0 25.7 0.00 0.00 0.00 35 1011.8
20260503201010 15 338 4.8 25.7 0.00 0.00 0.00 36 1011.9
20260503200510 15 338 6.4 20.9 0.00 0.00 0.00 35 1012.0
20260503200030 15 315 6.4 22.5 0.00 0.00 0.00 36 1012.0
20260503195510 15 315 8.0 22.5 0.00 0.00 0.00 36 1012.1
20260503195010 15 315 6.4 27.4 0.00 0.00 0.00 37 1012.1
20260503194511 15 270 9.7 22.5 0.00 0.00 0.00 37 1012.0
20260503194030 15 338 6.4 25.7 0.00 0.00 0.00 38 1012.1
20260503193510 15 338 12.9 41.8 0.00 0.00 0.00 36 1012.3
20260503193010 15 0 9.7 24.1 0.00 0.00 0.00 37 1012.1
20260503192510 15 338 9.7 22.5 0.00 0.00 0.00 37 1012.3
20260503192010 15 0 9.7 25.7 0.00 0.00 0.00 36 1012.4
20260503191510 15 315 4.8 19.3 0.00 0.00 0.00 41 1012.3
20260503191010 15 315 6.4 19.3 0.00 0.00 0.00 37 1012.5
20260503190510 14 338 12.9 27.4 0.00 0.00 0.00 37 1012.4